1998-067PP (43639 NORAD) Tracking and Keplerian Element Data

This shows tracking and keplerian element data for the satellite.

Feedback or suggestion? Click here.




ElementValue
Catalog43639
Name1998-067PP
Epoch Orbit4345
Epoch Day193.53121506
Epoch Year2019
RAAN227.0329
Inclination51.6378
Eccentricity0.0004619
Argument of Perigee186.6363
Mean Anonmoly173.457
Mean Motion15.59589012
Decay Rate7.605E-05
L11 43639U 98067PP 19193.53121506 .00007605 00000-0 99958-4 0 9993
L22 43639 51.6378 227.0329 0004619 186.6363 173.4570 15.59589012 43453

Live tracking and technical data element details for 1998-067PP (NORAD 43639). 1998-067PP can be tracked NOW for your location showing map with azimuth and elevation plus other details from your city location.

Track the satellite on the map from your city or location and see movement details for azimuth, elevation, latitude, longitude, range, height, and movement on the map or in text.







IsCatalogInMostPopularTable: catalog: 43639, numindb: 181
Update: records affected: 1



GetName: 43639 1998-067PP

Hit Count: updated at: Tue, 16 Jul 2019 14:17:30 GMT